{"data":{"norad_id":58682,"epoch":"2026-09-19T18:48:41.163264Z","epoch_age_seconds":211575,"freshness":"STALE","line1":"1 58682U 23211R   26262.78380976  .00000100  00000+0  13163-4 0  9992","line2":"2 58682  43.0051  68.7152 0001409 262.8734  97.1957 15.27575354152155","mean_motion":15.27575354,"eccentricity":0.0001409,"inclination_deg":43.0051,"raan_deg":68.7152,"arg_perigee_deg":262.8734,"mean_anomaly_deg":97.1957,"bstar":1.3163e-5,"rev_number":15215,"period_min":94.267035418536,"perigee_km":482.09626478919,"apogee_km":484.02975095141,"semimajor_km":6861.2000078703,"source":"CELESTRAK","updated_at":"2026-09-21T09:00:33.945213Z"}}